Location: Huesca
(42.1318°N, 0.4078°W)
Time: 13:15:52
(UTC+02:00)

deb Explorer IX - All Passes

Search period start: 19 July 2024 00:00
Search period end: 29 July 2024 00:00
Orbit: 510 x 879 km, 38.7° (Epoch: 18 July)

Date Brightness Start Highest point End Pass type
(mag) Time Alt. Az. Time Alt. Az. Time Alt. Az.
19 Jul - 01:37:02 10° W 01:42:09 57° S 01:46:41 10° ESE visible
19 Jul - 03:21:33 10° W 03:25:44 30° SSW 03:29:32 10° SE night (unlit)
19 Jul - 21:08:05 10° S 21:12:01 18° SSE 21:15:47 10° ESE daylight
19 Jul - 22:50:13 10° SW 22:55:37 43° SSE 23:00:34 10° E visible
20 Jul - 00:34:08 10° WSW 00:39:32 60° S 00:44:19 10° E visible
20 Jul - 02:18:31 10° W 02:23:19 41° SSW 02:27:35 10° SE visible
20 Jul - 04:03:59 10° WSW 04:06:30 14° SW 04:08:54 10° S night (unlit)
20 Jul - 20:07:22 10° SSE 20:09:32 12° SE 20:11:39 10° ESE daylight
20 Jul - 21:47:42 10° SW 21:52:57 34° SSE 21:57:51 10° E daylight
20 Jul - 23:31:13 10° WSW 23:36:48 58° S 23:41:50 10° E visible
21 Jul - 01:15:30 10° W 01:20:43 53° SSW 01:25:22 10° ESE visible
21 Jul - 03:00:15 10° W 03:04:11 23° SSW 03:07:47 10° SSE night (unlit)
21 Jul - 20:45:27 10° SSW 20:50:15 25° SSE 20:54:50 10° E daylight
21 Jul - 22:28:19 10° WSW 22:34:00 52° SSE 22:39:12 10° E visible
22 Jul - 00:12:27 10° W 00:17:58 60° S 00:22:55 10° ESE visible
22 Jul - 01:56:57 10° W 02:01:41 35° SSW 02:05:57 10° SE visible
22 Jul - 03:44:06 10° SW 03:44:43 10° SW 03:45:19 10° SSW night (unlit)
22 Jul - 19:43:43 10° S 19:47:35 18° SSE 19:51:22 10° ESE daylight
22 Jul - 21:25:32 10° SW 21:31:08 43° SSE 21:36:24 10° E daylight
22 Jul - 23:09:21 10° WSW 23:15:06 62° S 23:20:19 10° E visible
23 Jul - 00:53:44 10° W 00:59:00 47° SSW 01:03:43 10° ESE visible
23 Jul - 02:38:53 10° WSW 02:42:19 18° SSW 02:45:31 10° S visible
23 Jul - 18:43:24 10° SSE 18:44:56 11° SE 18:46:29 10° SE daylight
23 Jul - 20:22:56 10° SW 20:28:16 33° SSE 20:33:23 10° E daylight
23 Jul - 22:06:17 10° WSW 22:12:08 59° S 22:17:33 10° E visible
23 Jul - 23:50:31 10° W 23:56:08 57° S 00:01:13 10° ESE visible
24 Jul - 01:35:11 10° W 01:39:44 28° SSW 01:43:55 10° SSE visible
24 Jul - 19:20:41 10° SSW 19:25:25 24° SSE 19:30:04 10° E daylight
24 Jul - 21:03:16 10° WSW 21:09:06 51° SSE 21:14:38 10° E daylight
24 Jul - 22:47:18 10° W 22:53:09 63° S 22:58:30 10° ESE visible
25 Jul - 00:31:44 10° W 00:36:59 40° SSW 00:41:44 10° SE visible
25 Jul - 02:17:38 10° WSW 02:20:09 14° SW 02:22:34 10° S visible
25 Jul - 18:19:02 10° S 18:22:35 16° SE 18:26:08 10° ESE daylight
25 Jul - 20:00:25 10° SW 20:06:03 41° SSE 20:11:33 10° E daylight
25 Jul - 21:44:05 10° WSW 21:50:02 63° S 21:55:36 10° E daylight
25 Jul - 23:28:22 10° W 23:34:02 51° SSW 23:39:12 10° ESE visible
26 Jul - 01:13:18 10° W 01:17:30 22° SSW 01:21:25 10° SSE visible
26 Jul - 18:57:48 10° SSW 19:03:00 31° SSE 19:08:12 10° E daylight
26 Jul - 20:40:54 10° WSW 20:46:50 58° S 20:52:33 10° E daylight
26 Jul - 22:25:01 10° W 22:30:54 60° S 22:36:24 10° ESE visible
27 Jul - 00:09:34 10° W 00:14:40 33° SSW 00:19:22 10° SE visible
27 Jul - 17:55:35 10° SSW 18:00:02 22° SSE 18:04:31 10° E daylight
27 Jul - 19:37:49 10° WSW 19:43:37 49° SSE 19:49:21 10° E daylight
27 Jul - 21:21:41 10° W 21:27:41 64° S 21:33:23 10° E daylight
27 Jul - 23:06:02 10° W 23:11:38 44° SSW 23:16:50 10° SE visible
28 Jul - 00:51:24 10° WSW 00:54:58 17° SW 00:58:20 10° S visible
28 Jul - 16:54:13 10° S 16:57:06 14° SE 17:00:02 10° ESE daylight
28 Jul - 18:34:56 10° SW 18:40:25 38° SSE 18:45:58 10° E daylight
28 Jul - 20:18:22 10° WSW 20:24:21 63° S 20:30:12 10° E daylight
28 Jul - 22:02:32 10° W 22:08:25 55° SSW 22:13:59 10° ESE visible
28 Jul - 23:47:15 10° W 23:52:03 26° SSW 23:56:33 10° SSE visible
